Regional Weather Roundup
Issued by NWS

Home | Current Version | Previous Version | Text Only | Print | Product List | Glossary On
Versions: 1 2 3 4 5 6 7 8 9 10 11 12 13 14 15 16 17 18 19 20 21 22 23 24 25 26 27 28 29 30 31 32 33 34 35 36 37 38 39 40 41 42 43 44 45 46 47 48 49 50
747
ASUS44 KBMX 191410
RWRAL

ALABAMA REGIONAL WEATHER ROUNDUP
NATIONAL WEATHER SERVICE BIRMINGHAM AL
900 AM CDT THU APR 19 2018

NOTE: "FAIR" INDICATES FEW OR NO CLOUDS BELOW 12,000 FEET
WITH NO SIGNIFICANT WEATHER AND/OR OBSTRUCTIONS TO VISIBILITY.

THE REMARK "TC" DENOTES TEMPERATURE IN DEGREES CELSIUS.

ALZ001>011-014-016>018-020-191500-
NORTH ALABAMA

CITY           SKY/WX    TMP DP  RH WIND       PRES   REMARKS
MUSCLE SHOALS  FAIR      51  33  50 N12G18    30.20R
HUNTSVILLE     PTSUNNY   50  37  61 N14       30.15R
DECATUR        FAIR      50  36  58 N14       30.16R
HALEYVILLE     FAIR      48  35  60 N10G20    30.19R
GADSDEN        FAIR      57  41  55 N10       30.11R
$$

ALZ012-013-022-023-030>036-040>044-191500-
WEST CENTRAL ALABAMA

CITY           SKY/WX    TMP DP  RH WIND       PRES   REMARKS
TUSCALOOSA     FAIR      59  41  51 NW13      30.16R
DEMOPOLIS      FAIR      61  42  50 N10G22    30.15R
$$

ALZ015-024>026-033>036-041>044-191500-
CENTRAL ALABAMA

CITY           SKY/WX    TMP DP  RH WIND       PRES   REMARKS
BIRMINGHAM     FAIR      57  37  47 N15G22    30.14R
MONTGOMERY     FAIR      68  47  46 NW12      30.09R
SHELBY CO ARPT FAIR      60  43  53 NW8       30.11R
MAXWELL AFB    FAIR      67  47  48 NW8       30.07R
GREENVILLE     FAIR      67  53  61 N14G21    30.08R
SELMA          FAIR      64  43  45 NW14      30.11R
PRATTVILLE     FAIR      65  44  47 NW7       30.09R
BESSEMER       FAIR      57  40  52 NW15      30.12R
TALLADEGA      FAIR      60  44  56 CALM      30.10R
PELL CITY      SUNNY     61  43  51 N10       30.10R
MARION         FAIR      61  43  51 NW18      30.13R
SYLACAUGA      FAIR      61  44  54 N8        30.10R
$$

ALZ019-021-028-029-037-038-045>048-191500-
EAST CENTRAL ALABAMA

CITY           SKY/WX    TMP DP  RH WIND       PRES   REMARKS
ANNISTON       FAIR      59  43  55 N7        30.08R
ALEXANDER CITY FAIR      62  49  60 NW14      30.07R
AUBURN         FAIR      67  52  58 NW12      30.06R
$$

ALZ051>064-191500-
SOUTHWEST ALABAMA

CITY           SKY/WX    TMP DP  RH WIND       PRES   REMARKS
MOBILE         PTSUNNY   68  59  73 N13G20    30.13R
BROOKLEY FIELD FAIR      72  63  73 N10       30.13R
EVERGREEN      FAIR      69  57  65 N9        30.11R
$$

ALZ049-050-065>069-191500-
SOUTHEAST ALABAMA

CITY           SKY/WX    TMP DP  RH WIND       PRES   REMARKS
DOTHAN         CLOUDY    68  62  81 W10       30.10S
OZARK          CLOUDY    67  63  87 W7        30.07R
TROY           PTSUNNY   68  60  75 NW12      30.08R
EUFAULA        CLOUDY    70  63  78 W8G17     30.04S
$$




USA.gov is the U.S. government's official web portal to all federal, state and local government web resources and services.